Tracking 19177 objects as of 24-May-2018
HD Live streaming from Space Station
objects crossing your sky now

COSMOS 1459

Track COSMOS 1459 now!
10-day predictions
COSMOS 1459 is classified as:


NORAD ID: 14057
Int'l Code: 1983-042A
Perigee: 946.3 km
Apogee: 1,020.3 km
Inclination: 83.0 °
Period: 104.6 minutes
Semi major axis: 7354 km
RCS: 2.2747 m2 (large)
Launch date: May 6, 1983
Source: Commonwealth of Independent States (former USSR) (CIS)
Launch site: PLESETSK MISSILE AND SPACE COMPLEX (PKMTR)
aabbcc
Your satellite tracking list
Your tracking list is empty




NASA's NSSDC Master Catalog

Two Line Element Set (TLE):
1 14057U 83042A   18143.57083924  .00000038  00000-0  22059-4 0  9992
2 14057  82.9740 199.3791 0050329 147.2990 213.1300 13.76538454760581
Source of the keplerian elements: AFSPC